Regional Weather Roundup
Issued by NWS

Home | Current Version | Previous Version | Graphics & Text | Print | Product List | Glossary On
Versions: 1 2 3 4 5 6 7 8 9 10 11 12 13 14 15 16 17 18 19 20 21 22 23 24 25 26 27 28 29 30 31 32 33 34 35 36 37 38 39 40 41 42 43 44 45 46 47 48 49 50
000
ASUS43 KLSX 290707
RWRMO

WEATHER SUMMARY FOR MISSOURI
NATIONAL WEATHER SERVICE SPRINGFIELD MO
200 AM CDT SAT APR 29 2017

NOTE: "FAIR" INDICATES FEW OR NO CLOUDS BELOW 12,000 FEET WITH NO
       SIGNIFICANT WEATHER AND/OR OBSTRUCTIONS TO VISIBILITY.
       CURRENT SKY AND/OR WEATHER CONDITIONS ARE NOT AVAILABLE FOR
       CHILLICOTHE AND FARMINGTON.

MOZ001>031-035>038-043-044-053-054-290800-
...NORTHERN AND WESTERN MISSOURI...

CITY           SKY/WX    TMP DP  RH WIND       PRES   REMARKS
KANSAS CTY INT CLOUDY    44  43  96 NE17      29.94R VSB 1
KANSAS C DTWN  CLOUDY    46  44  93 N13       29.90R
LEE`S SUMMIT   CLOUDY    45  45 100 N10       29.89R FOG
ST JOSEPH      CLOUDY    45  44  97 NE13G22   29.95S
CHILLICOTHE      N/A     46  44  93 N9        29.94R
KIRKSVILLE     CLOUDY    45  40  82 NE14G25   29.94S HAZE

$$
MOZ066>068-077>081-088>096-101>105-290800-
...SOUTHWEST MISSOURI...

CITY           SKY/WX    TMP DP  RH WIND       PRES   REMARKS
SPRINGFIELD    TSTM      62  61  96 N10       29.80R FOG
JOPLIN         LGT RAIN  62  60  93 E12G22    29.74F FOG
BRANSON        CLOUDY    63  63 100 N7        29.73F FOG

$$
MOZ032>034-039>042-045>050-055>058-069>072-290800-
...CENTRAL MISSOURI...

CITY           SKY/WX    TMP DP  RH WIND       PRES   REMARKS
COLUMBIA       CLOUDY    57  57 100 NE13      29.87R THUNDER
JEFFERSON CITY TSTM      61  56  83 NE7       29.85F
ROLLA          RAIN      58  58 100 CALM      29.87R FOG
SEDALIA        LGT RAIN  52  52 100 N9        29.89S FOG
WHITEMAN AFB   CLOUDY    48  48 100 NE10      29.86F FOG
OSAGE BEACH    TSTM      59  58  96 NE5       29.89R

$$
MOZ051-052-059>065-290800-
...EAST CENTRAL MISSOURI...

CITY           SKY/WX    TMP DP  RH WIND       PRES   REMARKS
ST LOUIS INTL  TSTM      59  56  89 NE14      29.84F FOG
SPIRIT OF STL  LGT RAIN  58  58 100 NE8       29.83F FOG
ST CHARLES     CLOUDY    58  57  97 NE12      29.87F

$$
MOZ072>076-082>087-097>100-106>115-290800-
...SOUTH CENTRAL AND SOUTHEAST MISSOURI...

CITY           SKY/WX    TMP DP  RH WIND       PRES   REMARKS
CAPE GIRARDEAU CLOUDY    67  65  93 NE6       29.80S
FARMINGTON     TSTM      60  59  96 NE8       29.81F
POPLAR BLUFF   CLOUDY    67  66  97 N6        29.79R FOG
WEST PLAINS    CLOUDY    64  62  93 CALM      29.80F

$$



USA.gov is the U.S. government's official web portal to all federal, state and local government web resources and services.